Wind_Speed
43 43 43 43 42 43 43 43 43 43 42 43 43 44 43 43 43 43 42 42 41 39 38 38 38 41 41 41 41 42 43 43 41 42 44 44 44 45
42 43 42 42 42 42 42 43 43 42 42 42 41 41 41 40 40 40 39 38 37 36 35 35 36 38 38 39 39 39 40 41 41 42 44 44 45 45
42 41 41 41 41 41 41 41 41 41 41 40 40 39 39 38 38 38 37 35 34 33 33 33 34 35 35 37 37 39 41 40 41 42 43 45 46 47
41 41 40 40 40 40 40 40 40 40 40 39 39 38 37 37 36 36 35 34 33 33 33 33 33 34 35 36 38 39 40 40 40 42 43 45 47 48
39 39 39 39 39 39 39 39 39 39 39 38 37 37 36 35 35 35 34 34 34 34 35 34 34 35 36 37 38 39 39 40 41 43 44 46 47 48
38 38 38 38 38 38 38 38 38 38 38 37 37 36 36 35 35 35 35 35 35 36 36 36 37 38 39 39 40 41 42 43 44 45 46 46 48 49
37 37 37 37 37 37 37 37 37 37 37 36 36 36 36 36 36 37 37 37 37 37 38 38 39 40 41 42 43 44 44 45 46 47 47 48 49 50
36 35 36 36 35 36 36 36 37 36 36 36 36 36 37 37 38 38 38 38 38 39 40 41 42 42 43 44 45 45 45 46 47 48 48 49 50 51
34 35 35 35 35 35 35 35 36 36 36 36 36 37 38 38 39 39 39 40 41 42 43 44 44 45 45 46 46 46 47 47 48 48 49 50 50 50
33 34 34 34 34 34 34 35 35 35 36 37 38 38 39 39 40 41 42 43 44 44 44 45 46 46 47 47 47 47 48 48 48 48 48 49 49 49
33 33 33 33 33 34 34 35 35 36 37 38 39 39 40 41 42 43 44 44 45 46 46 46 47 48 48 49 50 50 49 48 48 48 48 48 48 48
32 32 32 32 33 34 34 35 36 37 38 39 39 40 41 42 43 44 45 46 46 47 48 48 49 49 49 50 51 50 49 47 46 46 45 45 45 45
31 31 32 33 33 34 35 36 37 38 39 40 41 42 43 44 45 46 47 47 48 49 49 49 49 49 49 48 49 49 48 46 44 43 42 42 42 42
30 31 32 33 34 35 36 37 38 39 40 41 42 43 44 45 47 48 48 49 50 50 50 49 48 48 48 47 47 48 47 44 42 41 40 39 38 38
31 31 33 34 35 36 37 38 39 40 41 42 43 44 46 47 48 49 50 50 51 50 49 48 48 48 47 47 45 45 43 42 40 38 37 36 36 35
31 32 33 35 36 37 38 39 39 41 41 42 44 46 47 49 50 50 51 51 51 51 50 49 48 47 46 45 43 41 40 39 38 37 35 34 34 34
32 33 35 36 37 38 39 39 40 41 42 43 45 47 48 50 50 51 51 51 50 50 50 49 47 45 45 43 41 40 39 38 37 35 34 33 33 33
34 35 36 37 38 39 40 40 41 42 43 45 46 48 49 50 51 52 51 51 50 50 49 48 46 44 43 42 41 39 38 36 36 35 33 32 32 34
35 36 37 38 38 39 40 41 42 43 45 46 47 49 50 51 52 52 51 50 49 49 48 47 45 43 41 39 39 40 38 36 35 34 34 32 31 32
36 37 37 38 39 39 40 42 43 45 46 47 48 49 50 51 51 51 50 49 48 48 47 47 45 43 40 38 36 37 38 35 34 33 33 32 31 31
36 37 38 39 39 40 42 43 44 46 46 47 48 49 50 50 50 50 49 48 47 46 45 45 44 43 40 38 35 34 36 36 34 32 31 30 29 29
37 38 39 40 40 42 43 44 45 46 47 47 48 49 50 50 50 50 48 48 47 46 44 43 43 42 41 38 35 33 33 35 35 32 31 29 28 26
39 40 40 41 42 43 45 45 46 47 47 48 49 49 49 49 49 49 48 48 47 45 43 41 41 41 40 38 35 33 32 32 32 32 32 32 28 26
Wind_Direction
290 291 293 294 295 297 298 298 300 300 301 302 302 303 304 304 304 304 304 303 299 295 290 286 282 278 276 276 276 273 272 271 270 268 266 266 264 263
290 292 292 293 295 296 297 299 300 300 301 302 303 304 304 305 305 306 305 304 301 297 294 292 289 286 282 279 278 276 275 273 272 270 269 266 265 264
290 291 292 293 294 296 297 298 299 300 302 303 303 304 304 306 305 306 306 305 304 302 298 295 291 288 287 285 281 278 277 276 274 272 270 268 267 266
290 291 292 293 294 296 297 298 299 300 302 303 304 304 305 306 306 305 306 305 304 304 301 298 295 292 290 288 284 280 277 276 275 274 271 270 269 267
289 290 292 293 294 295 296 297 299 300 302 303 304 304 305 306 306 306 306 305 303 302 301 299 297 294 293 290 286 283 280 277 276 274 273 272 270 268
289 290 291 293 294 295 296 297 299 300 302 302 303 304 304 305 306 306 306 304 303 301 300 298 297 295 293 292 289 285 282 280 278 276 275 274 272 270
289 290 291 293 293 295 296 298 299 301 302 302 303 304 304 305 306 306 306 306 305 304 302 300 299 297 295 293 290 287 285 282 280 278 277 275 273 271
289 290 291 292 293 295 296 298 299 301 302 302 303 304 305 306 306 306 306 306 305 305 303 302 300 298 296 294 291 289 286 284 282 281 279 277 275 273
288 290 291 292 293 295 296 298 299 300 301 303 304 305 305 306 306 306 306 305 305 305 304 303 301 299 297 295 293 291 289 287 285 283 281 278 276 273
288 290 291 293 294 295 297 298 300 301 302 303 304 305 305 306 306 306 306 306 305 305 305 303 302 301 299 296 294 291 289 288 286 283 281 278 277 275
288 290 292 292 294 295 297 299 301 301 303 304 304 305 306 307 307 307 307 306 306 306 305 304 303 302 300 298 295 293 291 289 287 284 282 279 277 275
289 290 291 293 295 297 299 300 301 302 303 304 305 305 306 307 308 308 308 307 306 306 306 305 304 303 301 299 297 295 293 290 287 285 282 279 277 275
289 290 292 294 296 298 300 301 302 303 304 305 305 306 307 308 308 309 309 308 308 307 306 305 304 304 303 301 298 296 294 292 288 285 282 280 278 276
289 291 293 295 297 299 300 302 303 304 305 305 306 308 309 309 309 309 309 309 309 308 308 307 306 305 304 303 301 298 296 294 290 287 285 283 280 277
290 292 294 296 298 300 301 302 303 304 305 306 307 309 309 310 310 310 310 310 310 309 309 308 307 307 306 304 302 299 297 295 292 289 287 284 281 278
291 293 295 297 298 300 302 303 304 305 306 307 308 309 310 311 311 311 311 311 311 310 310 309 308 308 307 305 303 300 297 295 293 291 288 285 282 279
291 293 295 297 299 301 303 304 305 306 307 308 309 310 311 311 312 312 311 311 311 311 311 311 310 309 308 306 303 300 297 295 293 291 288 286 284 281
292 295 297 298 300 302 303 304 305 306 307 309 310 311 311 312 312 312 312 311 311 311 310 310 310 310 310 308 304 300 298 295 293 290 288 285 283 282
293 295 297 299 301 303 304 305 306 307 308 310 311 311 312 313 313 313 313 312 312 311 311 310 310 310 310 309 306 302 299 297 294 291 289 287 283 281
293 295 298 300 301 303 304 305 307 308 309 310 311 312 313 314 314 314 314 313 312 312 310 310 310 310 309 309 306 302 300 298 295 293 290 289 286 282
294 296 298 300 302 303 305 306 308 309 310 311 312 313 314 315 315 315 315 314 313 313 311 310 310 310 309 308 307 303 300 300 298 295 291 289 287 283
294 296 298 300 302 304 305 306 307 309 310 311 312 313 314 315 316 316 315 314 314 313 312 311 310 310 309 309 307 304 300 299 300 298 295 290 286 280
294 296 298 300 302 304 305 306 307 309 310 311 312 313 314 315 316 316 316 315 314 314 313 312 311 310 309 308 308 305 301 298 298 298 298 295 290 283
Height
5749 5747 5744 5741 5738 5735 5732 5728 5726 5722 5719 5714 5709 5704 5698 5693 5688 5682 5677 5672 5668 5665 5663 5662 5661 5660 5660 5660 5660 5660 5662 5662 5663 5665 5666 5668 5670 5671
5739 5737 5734 5731 5728 5725 5722 5718 5715 5711 5708 5704 5699 5694 5689 5684 5678 5673 5668 5664 5660 5657 5654 5652 5651 5650 5650 5649 5649 5649 5650 5650 5651 5652 5653 5655 5656 5657
5729 5727 5724 5721 5718 5715 5712 5708 5705 5701 5697 5693 5689 5684 5680 5675 5670 5665 5660 5656 5652 5649 5646 5644 5642 5641 5640 5639 5639 5638 5638 5638 5638 5639 5639 5640 5641 5643
5720 5717 5715 5712 5709 5706 5702 5699 5695 5691 5688 5684 5679 5675 5671 5666 5661 5657 5653 5648 5645 5641 5638 5635 5633 5632 5630 5629 5628 5627 5626 5626 5625 5625 5626 5626 5627 5627
5710 5708 5705 5702 5699 5696 5693 5689 5686 5682 5678 5674 5670 5666 5662 5658 5653 5649 5645 5641 5637 5633 5630 5627 5624 5622 5620 5618 5617 5615 5614 5613 5612 5612 5611 5611 5611 5612
5701 5698 5695 5693 5690 5687 5683 5680 5677 5673 5669 5665 5661 5657 5653 5649 5645 5641 5637 5633 5629 5625 5621 5618 5615 5612 5609 5607 5605 5603 5601 5600 5598 5598 5597 5596 5596 5596
5691 5689 5686 5684 5681 5678 5674 5671 5667 5664 5660 5656 5652 5648 5645 5641 5636 5632 5628 5624 5620 5616 5612 5608 5605 5601 5598 5595 5592 5589 5587 5585 5584 5582 5581 5580 5580 5579
5682 5680 5677 5675 5672 5669 5665 5662 5659 5655 5651 5647 5644 5640 5635 5631 5627 5623 5618 5614 5610 5607 5601 5597 5594 5590 5586 5582 5578 5575 5572 5570 5568 5566 5565 5563 5562 5561
5673 5671 5668 5666 5663 5660 5656 5653 5650 5646 5643 5639 5635 5631 5626 5622 5618 5613 5608 5604 5599 5595 5590 5585 5581 5577 5572 5568 5564 5561 5558 5555 5553 5550 5548 5546 5544 5543
5664 5662 5659 5657 5654 5651 5648 5645 5641 5637 5634 5630 5626 5621 5617 5612 5608 5603 5598 5593 5588 5583 5578 5573 5567 5563 5558 5554 5550 5546 5543 5540 5536 5533 5531 5528 5527 5525
5656 5653 5651 5648 5645 5642 5639 5636 5632 5628 5624 5620 5616 5611 5607 5602 5597 5592 5587 5582 5576 5570 5565 5560 5555 5549 5544 5539 5534 5530 5526 5523 5520 5517 5514 5511 5510 5508
5647 5645 5642 5639 5637 5633 5630 5627 5623 5619 5615 5611 5606 5602 5597 5592 5586 5581 5575 5569 5564 5558 5552 5547 5540 5535 5530 5523 5518 5513 5510 5506 5503 5500 5497 5495 5493 5492
5639 5636 5634 5631 5628 5625 5621 5618 5614 5610 5605 5601 5596 5591 5586 5581 5575 5569 5563 5557 5551 5545 5539 5533 5526 5520 5514 5509 5502 5497 5493 5490 5487 5484 5482 5479 5478 5476
5630 5628 5625 5622 5619 5616 5612 5608 5604 5600 5595 5591 5586 5581 5575 5569 5563 5557 5551 5544 5538 5531 5525 5519 5513 5506 5500 5494 5488 5482 5477 5474 5471 5469 5466 5464 5463 5461
5622 5619 5616 5613 5610 5606 5603 5599 5594 5590 5585 5580 5575 5570 5564 5558 5551 5545 5538 5531 5524 5518 5511 5505 5499 5493 5486 5480 5474 5467 5463 5459 5456 5455 5453 5451 5449 5448
5613 5610 5607 5604 5601 5597 5593 5589 5584 5580 5575 5570 5564 5558 5552 5546 5539 5532 5525 5518 5510 5503 5497 5492 5485 5479 5473 5466 5460 5455 5450 5447 5443 5441 5440 5438 5436 5435
5604 5601 5598 5595 5591 5587 5583 5579 5574 5569 5564 5559 5553 5547 5540 5533 5526 5519 5512 5505 5498 5490 5483 5477 5472 5466 5459 5453 5448 5442 5438 5435 5432 5430 5428 5426 5424 5422
5595 5592 5589 5585 5581 5577 5573 5568 5564 5559 5553 5548 5542 5535 5528 5521 5514 5507 5500 5492 5485 5478 5471 5464 5459 5453 5448 5441 5435 5431 5426 5423 5420 5418 5416 5415 5413 5410
5585 5582 5579 5575 5571 5567 5563 5558 5553 5548 5542 5536 5530 5523 5516 5509 5501 5494 5487 5480 5473 5465 5458 5452 5447 5442 5436 5431 5423 5417 5414 5411 5408 5406 5404 5403 5402 5400
5575 5572 5568 5565 5561 5556 5552 5547 5542 5536 5531 5525 5518 5511 5504 5497 5489 5482 5474 5467 5461 5454 5446 5439 5434 5429 5424 5420 5415 5407 5401 5399 5397 5395 5393 5391 5390 5389
5565 5562 5558 5554 5550 5546 5541 5536 5531 5525 5519 5513 5506 5499 5492 5485 5477 5470 5462 5455 5449 5442 5435 5428 5422 5417 5412 5408 5404 5399 5392 5387 5386 5384 5382 5381 5380 5378
5555 5551 5548 5544 5540 5535 5530 5525 5519 5514 5508 5501 5495 5488 5480 5473 5466 5458 5451 5444 5438 5431 5425 5418 5411 5405 5400 5396 5392 5389 5384 5378 5375 5373 5371 5370 5369 5369
5544 5541 5537 5533 5529 5524 5519 5513 5508 5502 5496 5490 5483 5476 5469 5462 5454 5447 5440 5433 5426 5420 5414 5408 5401 5395 5389 5385 5381 5378 5374 5370 5366 5364 5361 5358 5357 5358